Погода в Буще

Украина / Ровненская область     50°18′55″N   26°14′29″E
темп.,
°C
ветер,
м/с
пор.,
м/с
влажн.,
%
обл.,
%
осадки,
мм/ч
давл.,
гПа
погр.,
м
16 апреля, пт
пт1600:00+1з51097100 5.3 1015320
03:00+1з61298100 9.2 1013359
06:000зюз51199100 4.7 1012320
09:000зюз61199100 7.9 1012372
12:00+1з61099100 1.8 1013371
15:00+1з51099100 2.8 1014411
18:00+1зюз51099100 0.4 1014442
21:00+1зюз4999100 0.4 1016422
17 апреля, сб
сб1700:00+1зюз3799100 0.0 1016370
03:00+1зюз3699100 0.1 1017336
06:00+1зюз25100100 0.0 1017267
09:00+1зюз25100100 0.0 1019257
12:00+2зюз3499100 0.0 1020257
15:00+3з3499100 0.0 1020229
18:00+3з22100100 0.0 1021139
21:00+3ссв00100100 0.0 102182
18 апреля, вс
вс1800:00+3зюз119996 0.0 102173
03:00+1зюз229865 0.0 102161
06:00+1зсз229875 0.0 1020107
09:00+3зсз229486 0.0 1020225
12:00+8з227753 0.0 1019519
15:00+12сз236286 0.0 10171111
18:00+12зсз2371100 0.1 1017422
21:00+9св2392100 0.3 1018103
19 апреля, пн
пн1900:00+8в5888100 0.1 1018437
03:00+6всв4788100 0.3 1018281
06:00+4в3891100 0.0 1018233
09:00+6в4783100 0.0 1017399
12:00+10в5664100 0.0 10161079
15:00+12всв6652100 0.0 10141697
18:00+10св676363 0.0 10131082
21:00+8св6107791 0.2 1013644
20 апреля, вт
вт2000:00+4ссв498997 0.0 1012253
03:00+6ссв51087100 0.0 1010486
06:00+5с61092100 0.1 1008508
09:00+6ссз61186100 0.1 1007880
12:00+9ссз91171100 0.2 10051377
15:00+9ссз91267100 0.4 10041398
18:00+9сз91269100 0.1 10051480
21:00+7сз7127675 0.2 1006792